MAS147 WMKK-YMML

Flight info

Callsign MAS147
Flight time 7h 4m
Altitude 39000
Route MITOS1E MITOS M630 BOBAG P501 ANITO B470 PKP L895 SAPDA A585 GUKON/N0481F410 A585 AD V255 BENDO Y12 ARBEY
Aircraft A359/H-SDE2E3GHIJ3J4J5LM1ORWXY/LB1D1

Departure

Time 2026-04-30 14:28
Airport Kuala Lumpur International Airport (WMKK)

Arrival

Time 2026-04-30 21:32
Airport Melbourne Airport (YMML)
Time Latitude Longitude Altitude Speed Heading
2026-04-30 13:40 2.74522 101.71578 79 ft 0 kts 326°
2026-04-30 14:19 2.74508 101.71587 69 ft 4 kts 326°
2026-04-30 14:19 2.74485 101.71602 63 ft 4 kts 326°
2026-04-30 14:20 2.74468 101.71614 88 ft 4 kts 326°
2026-04-30 14:20 2.74451 101.71625 84 ft 4 kts 356°
2026-04-30 14:20 2.74440 101.71610 84 ft 4 kts 70°
2026-04-30 14:21 2.74429 101.71586 84 ft 3 kts 58°
2026-04-30 14:21 2.74427 101.71582 84 ft 4 kts 56°
2026-04-30 14:24 2.74439 101.71600 83 ft 10 kts 56°
2026-04-30 14:25 2.74558 101.71776 82 ft 17 kts 56°
2026-04-30 14:25 2.74690 101.71975 88 ft 15 kts 56°
2026-04-30 14:26 2.74767 101.72089 89 ft 0 kts 56°
2026-04-30 14:26 2.74776 101.72102 87 ft 10 kts 56°
2026-04-30 14:26 2.74909 101.72158 88 ft 13 kts 326°
2026-04-30 14:27 2.74920 101.72151 87 ft 0 kts 326°
2026-04-30 14:27 2.74926 101.72147 87 ft 9 kts 326°
2026-04-30 14:27 2.75172 101.71982 87 ft 76 kts 326°
2026-04-30 14:28 2.76695 101.70960 101 ft 179 kts 326°
2026-04-30 14:28 2.77682 101.70290 823 ft 166 kts 327°
2026-04-30 14:28 2.78673 101.69627 1279 ft 179 kts 327°
2026-04-30 14:28 2.79821 101.68975 1519 ft 201 kts 337°
2026-04-30 14:29 2.82700 101.67922 2016 ft 243 kts 341°
2026-04-30 14:29 2.85477 101.66936 2830 ft 259 kts 341°
2026-04-30 14:30 2.91361 101.66245 5071 ft 265 kts 32°
2026-04-30 14:31 2.93489 101.69158 6408 ft 266 kts 66°
2026-04-30 14:31 2.94780 101.72660 7730 ft 271 kts 81°
2026-04-30 14:31 2.94659 101.74523 8399 ft 276 kts 105°
2026-04-30 14:32 2.92311 101.77605 9781 ft 286 kts 135°
2026-04-30 14:32 2.90823 101.78958 10339 ft 294 kts 135°
2026-04-30 14:32 2.89264 101.80387 10631 ft 311 kts 135°
2026-04-30 14:33 2.87650 101.81884 10860 ft 328 kts 135°
2026-04-30 14:33 2.83923 101.84880 11310 ft 361 kts 150°
2026-04-30 14:33 2.81542 101.85828 11548 ft 375 kts 160°
2026-04-30 14:34 2.79016 101.86601 11961 ft 383 kts 161°
2026-04-30 14:34 2.76453 101.87349 12445 ft 385 kts 161°
2026-04-30 14:34 2.73884 101.88099 12944 ft 388 kts 161°
2026-04-30 14:34 2.71282 101.88857 13428 ft 391 kts 161°
2026-04-30 14:35 2.66898 101.90133 14132 ft 396 kts 161°
2026-04-30 14:35 2.63334 101.91168 14700 ft 400 kts 161°
2026-04-30 14:35 2.60677 101.91940 15132 ft 402 kts 161°
2026-04-30 14:36 2.57969 101.92726 15563 ft 404 kts 161°
2026-04-30 14:36 2.55262 101.93513 15975 ft 406 kts 161°
2026-04-30 14:36 2.52537 101.94305 16383 ft 409 kts 161°
2026-04-30 14:36 2.49823 101.95092 16775 ft 412 kts 161°
2026-04-30 14:37 2.47064 101.95892 17194 ft 414 kts 161°
2026-04-30 14:37 2.44288 101.96699 17612 ft 416 kts 162°
2026-04-30 14:37 2.41499 101.97508 18026 ft 418 kts 162°
2026-04-30 14:37 2.39642 101.98047 18272 ft 419 kts 162°
2026-04-30 14:38 2.35897 101.99134 18717 ft 423 kts 162°
2026-04-30 14:38 2.34018 101.99679 18950 ft 424 kts 162°
2026-04-30 14:38 2.30214 102.00784 19413 ft 426 kts 162°
2026-04-30 14:38 2.27354 102.01614 19758 ft 429 kts 162°
2026-04-30 14:39 2.24526 102.02434 20077 ft 431 kts 162°
2026-04-30 14:39 2.21628 102.03275 20405 ft 433 kts 162°
2026-04-30 14:39 2.19701 102.03834 20641 ft 434 kts 162°
2026-04-30 14:40 2.13859 102.05530 21302 ft 439 kts 162°
2026-04-30 14:40 2.10919 102.06384 21636 ft 441 kts 162°
2026-04-30 14:40 2.06992 102.07524 22092 ft 444 kts 162°
2026-04-30 14:40 2.04985 102.08106 22327 ft 445 kts 162°
2026-04-30 14:41 2.02025 102.09050 22651 ft 447 kts 157°
2026-04-30 14:41 1.99252 102.10387 22968 ft 447 kts 147°
2026-04-30 14:41 1.96758 102.12234 23301 ft 447 kts 136°
2026-04-30 14:41 1.94606 102.14484 23594 ft 448 kts 128°
2026-04-30 14:42 1.92714 102.16964 23858 ft 449 kts 124°
2026-04-30 14:42 1.90972 102.19559 24125 ft 451 kts 122°
2026-04-30 14:42 1.90421 102.20417 24214 ft 452 kts 121°
2026-04-30 14:42 1.90176 102.20802 24266 ft 452 kts 121°
2026-04-30 14:43 1.88640 102.23234 24542 ft 454 kts 121°
2026-04-30 14:43 1.86937 102.25916 24845 ft 456 kts 121°
2026-04-30 14:43 1.85212 102.28590 25135 ft 458 kts 122°
2026-04-30 14:43 1.83457 102.31267 25435 ft 461 kts 122°
2026-04-30 14:44 1.81703 102.33911 25755 ft 463 kts 122°
2026-04-30 14:44 1.79900 102.36610 26075 ft 466 kts 123°
2026-04-30 14:44 1.78089 102.39312 26430 ft 468 kts 123°
2026-04-30 14:44 1.76290 102.41991 26784 ft 470 kts 123°
2026-04-30 14:45 1.74456 102.44724 27137 ft 473 kts 123°
2026-04-30 14:45 1.72617 102.47467 27472 ft 476 kts 123°
2026-04-30 14:45 1.70764 102.50235 27812 ft 479 kts 123°
2026-04-30 14:45 1.68904 102.53013 28163 ft 482 kts 123°
2026-04-30 14:46 1.67061 102.55769 28511 ft 484 kts 123°
2026-04-30 14:46 1.65181 102.58580 28844 ft 487 kts 123°
2026-04-30 14:46 1.63287 102.61410 29156 ft 489 kts 123°
2026-04-30 14:46 1.61385 102.64253 29464 ft 492 kts 123°
2026-04-30 14:47 1.59481 102.67098 29795 ft 494 kts 123°
2026-04-30 14:47 1.57554 102.69975 30068 ft 497 kts 123°
2026-04-30 14:47 1.55650 102.72818 30314 ft 499 kts 123°
2026-04-30 14:47 1.53716 102.75707 30577 ft 500 kts 123°
2026-04-30 14:48 1.51764 102.78621 30832 ft 502 kts 123°
2026-04-30 14:48 1.49821 102.81523 31127 ft 502 kts 123°
2026-04-30 14:48 1.47900 102.84391 31505 ft 500 kts 123°
2026-04-30 14:48 1.45971 102.87270 31881 ft 499 kts 123°
2026-04-30 14:49 1.44041 102.90153 32245 ft 497 kts 123°
2026-04-30 14:49 1.42112 102.93034 32598 ft 496 kts 123°
2026-04-30 14:49 1.40252 102.95814 32946 ft 495 kts 123°
2026-04-30 14:49 1.38349 102.98657 33292 ft 494 kts 123°
2026-04-30 14:50 1.34553 103.04346 33960 ft 492 kts 123°
2026-04-30 14:50 1.32654 103.07187 34233 ft 491 kts 123°
2026-04-30 14:51 1.28861 103.12863 34798 ft 489 kts 123°
2026-04-30 14:51 1.26973 103.15685 35062 ft 488 kts 123°
2026-04-30 14:51 1.23229 103.21288 35606 ft 486 kts 123°
2026-04-30 14:52 1.21357 103.24092 35870 ft 485 kts 123°
2026-04-30 14:52 1.17615 103.29692 36404 ft 483 kts 123°
2026-04-30 14:52 1.15744 103.32491 36673 ft 482 kts 123°
2026-04-30 14:53 1.12056 103.38012 37163 ft 480 kts 123°
2026-04-30 14:53 1.10201 103.40792 37411 ft 479 kts 123°
2026-04-30 14:54 1.06505 103.46325 37885 ft 477 kts 123°
2026-04-30 14:54 1.02448 103.51547 38331 ft 475 kts 132°
2026-04-30 14:55 0.97949 103.56311 38734 ft 473 kts 134°
2026-04-30 14:55 0.95653 103.58677 38909 ft 472 kts 134°
2026-04-30 14:55 0.91065 103.63382 39231 ft 470 kts 134°
2026-04-30 14:56 0.86539 103.68039 39543 ft 469 kts 134°
2026-04-30 14:56 0.82008 103.72716 39839 ft 467 kts 134°
2026-04-30 14:57 0.79753 103.75047 39981 ft 466 kts 134°
2026-04-30 14:57 0.75235 103.79715 40193 ft 466 kts 134°
2026-04-30 14:58 0.70723 103.84376 40436 ft 465 kts 134°
2026-04-30 14:58 0.68500 103.86673 40545 ft 465 kts 134°
2026-04-30 14:58 0.64003 103.91318 40752 ft 464 kts 134°
2026-04-30 14:59 0.59518 103.95951 40932 ft 464 kts 134°
2026-04-30 15:00 0.52780 104.02919 40926 ft 466 kts 134°
2026-04-30 15:01 0.43773 104.12208 40929 ft 465 kts 134°
2026-04-30 15:01 0.37023 104.19175 40934 ft 464 kts 134°
2026-04-30 15:02 0.32564 104.23784 40935 ft 464 kts 133°
2026-04-30 15:03 0.21325 104.35385 40937 ft 463 kts 133°
2026-04-30 15:04 0.10146 104.46926 40934 ft 463 kts 133°
2026-04-30 15:06 -0.01026 104.58461 40945 ft 461 kts 133°
2026-04-30 15:07 -0.09939 104.67664 40947 ft 462 kts 133°
2026-04-30 15:08 -0.18860 104.76876 40942 ft 462 kts 133°
2026-04-30 15:09 -0.30421 104.88028 40944 ft 463 kts 143°
2026-04-30 15:10 -0.41039 104.95293 40943 ft 463 kts 144°
2026-04-30 15:11 -0.57079 105.06107 40931 ft 463 kts 144°
2026-04-30 15:13 -0.70406 105.15127 40946 ft 463 kts 144°
2026-04-30 15:14 -0.89046 105.27742 40937 ft 463 kts 144°
2026-04-30 15:17 -1.13056 105.43992 40936 ft 463 kts 144°
2026-04-30 15:19 -1.34375 105.58424 40933 ft 463 kts 144°
2026-04-30 17:39 -17.26494 115.84880 40993 ft 510 kts 144°
2026-04-30 17:42 -17.53759 116.08645 40994 ft 511 kts 144°
2026-04-30 17:43 -17.67405 116.20575 40998 ft 511 kts 144°
2026-04-30 17:44 -17.83784 116.34927 40995 ft 512 kts 145°
2026-04-30 17:47 -18.08327 116.56500 40994 ft 512 kts 145°
2026-04-30 17:48 -18.26513 116.72528 40994 ft 512 kts 145°
2026-04-30 17:50 -18.48326 116.91809 40988 ft 512 kts 145°
2026-04-30 17:52 -18.64692 117.06319 40990 ft 513 kts 145°
2026-04-30 17:54 -18.89232 117.28148 40984 ft 513 kts 145°
2026-04-30 17:56 -19.11018 117.47599 40972 ft 513 kts 145°
2026-04-30 17:58 -19.27367 117.62243 40975 ft 513 kts 146°
2026-04-30 18:00 -19.49148 117.81812 40976 ft 514 kts 146°
2026-04-30 18:01 -19.62757 117.94077 40975 ft 514 kts 146°
2026-04-30 18:02 -19.79096 118.08838 40976 ft 514 kts 146°
2026-04-30 18:04 -19.95407 118.23615 40976 ft 514 kts 146°
2026-04-30 18:06 -20.17165 118.43392 40977 ft 515 kts 146°
2026-04-30 18:08 -20.36238 118.60793 40969 ft 516 kts 146°
2026-04-30 18:10 -20.56573 118.82886 40966 ft 523 kts 140°
2026-04-30 18:11 -20.74217 119.02393 40982 ft 523 kts 140°
2026-04-30 18:13 -20.86874 119.16429 40982 ft 524 kts 141°
2026-04-30 18:14 -20.99482 119.30447 40982 ft 525 kts 141°
2026-04-30 18:15 -21.14650 119.47359 40990 ft 526 kts 141°
2026-04-30 18:16 -21.24794 119.58701 40989 ft 526 kts 141°
2026-04-30 18:17 -21.29832 119.64343 40984 ft 526 kts 141°
2026-04-30 18:18 -21.37449 119.72882 40989 ft 527 kts 141°
2026-04-30 18:18 -21.42487 119.78538 40988 ft 527 kts 141°
2026-04-30 18:19 -21.47558 119.84238 40988 ft 527 kts 141°
2026-04-30 18:19 -21.52632 119.89946 40992 ft 527 kts 141°
2026-04-30 18:20 -21.57696 119.95650 40992 ft 528 kts 141°
2026-04-30 18:20 -21.62741 120.01338 40997 ft 528 kts 141°
2026-04-30 18:21 -21.67811 120.07061 40995 ft 528 kts 141°
2026-04-30 18:21 -21.72894 120.12806 40993 ft 529 kts 141°
2026-04-30 18:22 -21.77968 120.18546 40992 ft 529 kts 141°
2026-04-30 18:22 -21.85553 120.27139 40992 ft 529 kts 141°
2026-04-30 18:23 -21.90640 120.32910 40991 ft 530 kts 141°
2026-04-30 18:23 -21.95685 120.38641 40995 ft 530 kts 141°
2026-04-30 18:24 -22.03297 120.47294 40990 ft 530 kts 141°
2026-04-30 18:25 -22.08377 120.53079 40993 ft 531 kts 141°
2026-04-30 18:25 -22.15975 120.61743 40991 ft 531 kts 141°
2026-04-30 18:26 -22.23571 120.70420 40988 ft 532 kts 141°
2026-04-30 18:27 -22.31173 120.79120 40989 ft 532 kts 141°
2026-04-30 18:28 -22.38814 120.87877 40984 ft 532 kts 142°
2026-04-30 18:28 -22.46401 120.96587 40985 ft 533 kts 142°
2026-04-30 18:29 -22.56574 121.08292 40985 ft 533 kts 141°
2026-04-30 18:30 -22.66717 121.19989 40975 ft 533 kts 141°
2026-04-30 18:31 -22.74306 121.28757 40983 ft 533 kts 141°
2026-04-30 18:32 -22.81938 121.37591 40979 ft 533 kts 141°
2026-04-30 18:33 -22.89525 121.46389 40976 ft 534 kts 141°
2026-04-30 18:33 -22.97108 121.55200 40981 ft 534 kts 141°
2026-04-30 18:34 -23.04713 121.64058 40973 ft 534 kts 141°
2026-04-30 18:35 -23.09789 121.69982 40977 ft 535 kts 141°
2026-04-30 18:35 -23.14863 121.75908 40974 ft 535 kts 141°
2026-04-30 18:36 -23.22444 121.84777 40973 ft 536 kts 141°
2026-04-30 18:37 -23.30038 121.93676 40974 ft 536 kts 141°
2026-04-30 18:37 -23.35115 121.99634 40969 ft 536 kts 141°
2026-04-30 18:38 -23.39340 122.04599 40970 ft 537 kts 141°
2026-04-30 18:38 -23.45241 122.11541 40974 ft 537 kts 141°
2026-04-30 18:39 -23.49473 122.16526 40964 ft 537 kts 141°
2026-04-30 18:39 -23.54551 122.22513 40974 ft 537 kts 141°
2026-04-30 18:40 -23.59633 122.28513 40967 ft 538 kts 141°
2026-04-30 18:40 -23.64684 122.34484 40965 ft 538 kts 141°
2026-04-30 18:41 -23.69762 122.40493 40968 ft 538 kts 141°
2026-04-30 18:41 -23.74842 122.46513 40971 ft 539 kts 140°
2026-04-30 18:42 -23.79896 122.52509 40974 ft 539 kts 140°
2026-04-30 18:42 -23.87522 122.61571 40970 ft 539 kts 140°
2026-04-30 18:45 -24.15430 122.94879 40965 ft 541 kts 140°
2026-04-30 18:46 -24.20520 123.00979 40964 ft 541 kts 140°
2026-04-30 18:46 -24.25577 123.07047 40968 ft 542 kts 140°
2026-04-30 18:47 -24.30668 123.13163 40967 ft 542 kts 140°
2026-04-30 18:47 -24.35755 123.19284 40968 ft 543 kts 140°
2026-04-30 18:48 -24.40814 123.25379 40964 ft 543 kts 140°
2026-04-30 18:48 -24.45896 123.31516 40964 ft 543 kts 140°
2026-04-30 18:49 -24.51004 123.37681 40970 ft 544 kts 140°
2026-04-30 18:49 -24.56067 123.43803 40964 ft 544 kts 140°
2026-04-30 18:50 -24.61158 123.49973 40963 ft 544 kts 139°
2026-04-30 18:50 -24.66252 123.56154 40966 ft 545 kts 139°
2026-04-30 18:51 -24.71325 123.62306 40964 ft 546 kts 139°
2026-04-30 18:51 -24.76433 123.68517 40968 ft 546 kts 139°
2026-04-30 18:52 -24.81541 123.74732 40961 ft 547 kts 139°
2026-04-30 18:52 -24.86626 123.80929 40969 ft 547 kts 139°
2026-04-30 18:53 -24.91736 123.87169 40972 ft 548 kts 139°
2026-04-30 18:53 -24.96818 123.93385 40965 ft 548 kts 139°
2026-04-30 18:54 -25.01930 123.99641 40964 ft 549 kts 139°
2026-04-30 18:54 -25.07033 124.05897 40964 ft 550 kts 139°
2026-04-30 18:55 -25.12163 124.12193 40965 ft 550 kts 139°
2026-04-30 18:55 -25.19823 124.21606 40964 ft 551 kts 139°
2026-04-30 18:56 -25.27516 124.31085 40963 ft 552 kts 139°
2026-04-30 18:57 -25.35183 124.40546 40964 ft 552 kts 139°
2026-04-30 18:57 -25.40306 124.46881 40965 ft 552 kts 139°
2026-04-30 18:58 -25.47962 124.56365 40961 ft 553 kts 139°
2026-04-30 18:59 -25.55649 124.65907 40962 ft 553 kts 139°
2026-04-30 19:00 -25.65897 124.78660 40963 ft 554 kts 139°
2026-04-30 19:01 -25.76114 124.91407 40964 ft 555 kts 138°
2026-04-30 19:02 -25.83821 125.01048 40963 ft 555 kts 138°
2026-04-30 19:03 -25.94051 125.13876 40965 ft 556 kts 138°
2026-04-30 19:04 -26.04280 125.26738 40961 ft 556 kts 138°
2026-04-30 19:05 -26.14526 125.39660 40965 ft 556 kts 138°
2026-04-30 19:06 -26.24722 125.52556 40970 ft 556 kts 137°
2026-04-30 19:06 -26.32405 125.62297 40969 ft 557 kts 137°
2026-04-30 19:07 -26.40065 125.72031 40965 ft 557 kts 137°
2026-04-30 19:08 -26.50271 125.85033 40965 ft 558 kts 137°
2026-04-30 19:09 -26.57939 125.94827 40963 ft 558 kts 137°
2026-04-30 19:09 -26.63058 126.01377 40961 ft 558 kts 137°
2026-04-30 19:10 -26.73262 126.14464 40964 ft 559 kts 137°
2026-04-30 19:11 -26.80896 126.24279 40963 ft 559 kts 137°
2026-04-30 19:12 -26.86008 126.30864 40966 ft 559 kts 137°
2026-04-30 19:12 -26.91082 126.37409 40967 ft 559 kts 137°
2026-04-30 19:13 -27.01292 126.50611 40966 ft 559 kts 137°
2026-04-30 19:14 -27.06361 126.57181 40963 ft 560 kts 136°
2026-04-30 19:14 -27.11463 126.63803 40962 ft 560 kts 136°
2026-04-30 19:15 -27.16560 126.70429 40965 ft 560 kts 136°
2026-04-30 19:15 -27.24185 126.80359 40960 ft 560 kts 136°
2026-04-30 19:16 -27.29247 126.86964 40962 ft 560 kts 136°
2026-04-30 19:17 -27.36879 126.96951 40957 ft 560 kts 136°
2026-04-30 19:17 -27.44462 127.06900 40958 ft 560 kts 136°
2026-04-30 19:18 -27.52067 127.16901 40961 ft 560 kts 136°
2026-04-30 19:19 -27.57130 127.23573 40950 ft 559 kts 136°
2026-04-30 19:19 -27.64686 127.33549 40957 ft 559 kts 136°
2026-04-30 19:20 -27.69746 127.40241 40953 ft 559 kts 135°
2026-04-30 19:21 -27.77305 127.50260 40953 ft 559 kts 135°
2026-04-30 19:22 -27.87377 127.63645 40951 ft 559 kts 135°
2026-04-30 19:23 -28.02409 127.83701 40950 ft 558 kts 135°
2026-04-30 19:24 -28.09945 127.93791 40948 ft 558 kts 135°
2026-04-30 19:25 -28.22441 128.10576 40939 ft 558 kts 135°
2026-04-30 19:26 -28.31579 128.22892 40940 ft 557 kts 134°
2026-04-30 19:27 -28.39071 128.33017 40943 ft 557 kts 134°
2026-04-30 19:28 -28.46507 128.43092 40937 ft 557 kts 134°
2026-04-30 19:29 -28.56430 128.56572 40943 ft 556 kts 134°
2026-04-30 19:30 -28.66356 128.70100 40934 ft 555 kts 134°
2026-04-30 19:31 -28.76238 128.83612 40927 ft 555 kts 134°
2026-04-30 19:31 -28.83657 128.93786 40920 ft 555 kts 134°
2026-04-30 19:32 -28.88564 129.00529 40939 ft 555 kts 134°
2026-04-30 19:32 -28.93498 129.07322 40948 ft 555 kts 133°
2026-04-30 19:33 -28.98399 129.14059 40930 ft 555 kts 133°
2026-04-30 19:33 -29.03328 129.20849 40932 ft 554 kts 133°
2026-04-30 19:34 -29.08255 129.27650 40930 ft 554 kts 133°
2026-04-30 19:35 -29.15601 129.37814 40930 ft 554 kts 133°
2026-04-30 19:35 -29.20518 129.44632 40929 ft 554 kts 133°
2026-04-30 19:36 -29.25424 129.51447 40929 ft 554 kts 133°
2026-04-30 19:36 -29.32751 129.61644 40927 ft 554 kts 133°
2026-04-30 19:37 -29.37657 129.68485 40926 ft 553 kts 133°
2026-04-30 19:37 -29.42519 129.75277 40927 ft 553 kts 133°
2026-04-30 19:38 -29.47403 129.82112 40927 ft 553 kts 133°
2026-04-30 19:38 -29.52285 129.88955 40926 ft 553 kts 132°
2026-04-30 19:39 -29.57130 129.95758 40923 ft 553 kts 132°
2026-04-30 19:39 -29.62006 130.02615 40928 ft 553 kts 132°
2026-04-30 19:40 -29.66850 130.09439 40925 ft 553 kts 132°
2026-04-30 19:40 -29.71720 130.16311 40926 ft 553 kts 132°
2026-04-30 19:41 -29.76580 130.23181 40928 ft 553 kts 132°
2026-04-30 19:41 -29.81406 130.30014 40927 ft 553 kts 132°
2026-04-30 19:42 -29.86261 130.36901 40928 ft 552 kts 132°
2026-04-30 19:42 -29.91107 130.43785 40929 ft 552 kts 132°
2026-04-30 19:43 -29.95923 130.50641 40926 ft 552 kts 131°
2026-04-30 19:44 -30.03154 130.60954 40931 ft 552 kts 131°
2026-04-30 19:44 -30.07986 130.67860 40933 ft 552 kts 131°
2026-04-30 19:45 -30.12812 130.74770 40931 ft 552 kts 131°
2026-04-30 19:45 -30.17634 130.81686 40929 ft 552 kts 131°
2026-04-30 19:46 -30.22455 130.88612 40931 ft 552 kts 131°
2026-04-30 19:46 -30.27250 130.95514 40932 ft 552 kts 131°
2026-04-30 19:47 -30.32066 131.02456 40932 ft 552 kts 131°
2026-04-30 19:47 -30.36849 131.09364 40936 ft 552 kts 131°
2026-04-30 19:48 -30.41662 131.16328 40932 ft 552 kts 131°
2026-04-30 19:48 -30.46439 131.23252 40931 ft 552 kts 131°
2026-04-30 19:49 -30.51240 131.30221 40933 ft 552 kts 131°
2026-04-30 19:49 -30.58402 131.40642 40933 ft 551 kts 131°
2026-04-30 19:50 -30.63184 131.47617 40933 ft 551 kts 131°
2026-04-30 19:50 -30.67938 131.54561 40938 ft 551 kts 131°
2026-04-30 19:51 -30.72711 131.61547 40935 ft 551 kts 130°
2026-04-30 19:51 -30.77478 131.68535 40938 ft 551 kts 130°
2026-04-30 19:52 -30.82216 131.75493 40937 ft 551 kts 130°
2026-04-30 19:52 -30.86972 131.82491 40939 ft 551 kts 130°
2026-04-30 19:53 -30.91725 131.89510 40940 ft 551 kts 130°
2026-04-30 19:53 -30.96465 131.96534 40943 ft 551 kts 130°
2026-04-30 19:54 -31.01184 132.03537 40941 ft 550 kts 130°
2026-04-30 19:54 -31.05909 132.10560 40945 ft 550 kts 130°
2026-04-30 19:55 -31.10616 132.17566 40946 ft 550 kts 130°
2026-04-30 19:55 -31.15342 132.24615 40946 ft 550 kts 130°
2026-04-30 19:56 -31.20035 132.31626 40950 ft 550 kts 130°
2026-04-30 19:56 -31.24750 132.38683 40952 ft 550 kts 130°
2026-04-30 19:57 -31.29460 132.45747 40954 ft 549 kts 130°
2026-04-30 19:57 -31.34134 132.52767 40955 ft 549 kts 130°
2026-04-30 19:58 -31.38829 132.59832 40956 ft 549 kts 130°
2026-04-30 19:58 -31.43519 132.66903 40955 ft 549 kts 130°
2026-04-30 19:59 -31.48174 132.73935 40957 ft 549 kts 130°
2026-04-30 20:00 -31.55195 132.84565 40962 ft 548 kts 129°
2026-04-30 20:00 -31.59859 132.91640 40967 ft 548 kts 129°
2026-04-30 20:01 -31.66827 133.02239 40964 ft 548 kts 129°
2026-04-30 20:01 -31.71491 133.09348 40969 ft 548 kts 129°
2026-04-30 20:02 -31.78446 133.19974 40970 ft 548 kts 129°
2026-04-30 20:03 -31.85415 133.30652 40973 ft 548 kts 129°
2026-04-30 20:03 -31.90023 133.37728 40979 ft 548 kts 129°
2026-04-30 20:04 -31.94654 133.44854 40975 ft 547 kts 129°
2026-04-30 20:05 -32.01595 133.55557 40980 ft 547 kts 129°
2026-04-30 20:05 -32.08490 133.66221 40976 ft 546 kts 129°
2026-04-30 20:06 -32.13071 133.73323 40978 ft 546 kts 129°
2026-04-30 20:06 -32.17625 133.80520 40976 ft 546 kts 128°
2026-04-30 20:07 -32.22136 133.87748 40985 ft 546 kts 128°
2026-04-30 20:08 -32.28865 133.98532 40984 ft 545 kts 128°
2026-04-30 20:08 -32.33370 134.05751 40989 ft 545 kts 128°
2026-04-30 20:09 -32.37849 134.12938 40990 ft 545 kts 128°
2026-04-30 20:09 -32.44595 134.23789 40995 ft 544 kts 128°
2026-04-30 20:10 -32.51322 134.34644 40998 ft 544 kts 128°
2026-04-30 20:11 -32.58022 134.45484 40999 ft 544 kts 127°
2026-04-30 20:11 -32.62471 134.52702 41006 ft 544 kts 127°
2026-04-30 20:12 -32.69172 134.63597 41009 ft 543 kts 127°
2026-04-30 20:13 -32.73594 134.70805 41008 ft 543 kts 127°
2026-04-30 20:13 -32.78049 134.78082 41014 ft 543 kts 127°
2026-04-30 20:14 -32.82492 134.85350 41015 ft 543 kts 127°
2026-04-30 20:14 -32.86184 134.91402 41017 ft 543 kts 127°
2026-04-30 20:15 -32.90608 134.98666 41017 ft 542 kts 127°
2026-04-30 20:15 -32.95039 135.05958 41023 ft 542 kts 127°
2026-04-30 20:16 -32.99435 135.13204 41019 ft 542 kts 127°
2026-04-30 20:16 -33.03837 135.20524 41021 ft 542 kts 127°
2026-04-30 20:17 -33.08183 135.27808 41026 ft 542 kts 126°
2026-04-30 20:17 -33.12556 135.35151 41029 ft 542 kts 126°
2026-04-30 20:18 -33.16909 135.42466 41033 ft 542 kts 126°
2026-04-30 20:18 -33.21271 135.49807 41032 ft 542 kts 126°
2026-04-30 20:19 -33.25630 135.57157 41037 ft 541 kts 126°
2026-04-30 20:19 -33.29957 135.64467 41041 ft 541 kts 126°
2026-04-30 20:20 -33.34309 135.71834 41043 ft 541 kts 126°
2026-04-30 20:20 -33.38655 135.79207 41048 ft 541 kts 126°
2026-04-30 20:21 -33.42995 135.86583 41048 ft 541 kts 126°
2026-04-30 20:21 -33.47315 135.93912 41052 ft 541 kts 126°
2026-04-30 20:22 -33.51670 136.01284 41054 ft 541 kts 126°
2026-04-30 20:22 -33.56011 136.08648 41055 ft 540 kts 126°
2026-04-30 20:23 -33.60331 136.15997 41057 ft 540 kts 126°
2026-04-30 20:23 -33.64661 136.23379 41058 ft 540 kts 126°
2026-04-30 20:24 -33.68956 136.30717 41061 ft 540 kts 126°
2026-04-30 20:24 -33.73275 136.38111 41061 ft 540 kts 126°
2026-04-30 20:25 -33.79717 136.49166 41062 ft 539 kts 126°
2026-04-30 20:26 -33.86172 136.60277 41059 ft 539 kts 126°
2026-04-30 20:26 -33.92581 136.71344 41064 ft 539 kts 126°
2026-04-30 20:27 -34.01148 136.86189 41064 ft 538 kts 126°
2026-04-30 20:28 -34.09682 137.01038 41069 ft 538 kts 125°
2026-04-30 20:30 -34.20297 137.19592 41072 ft 537 kts 125°
2026-04-30 20:31 -34.32964 137.41864 41079 ft 537 kts 125°
2026-04-30 20:32 -34.43527 137.60541 41083 ft 537 kts 125°
2026-04-30 20:33 -34.49847 137.71760 41088 ft 537 kts 125°
2026-04-30 20:34 -34.56140 137.82970 41092 ft 537 kts 125°
2026-04-30 20:35 -34.62411 137.94183 41094 ft 537 kts 124°
2026-04-30 20:35 -34.68712 138.05470 41094 ft 537 kts 124°
2026-04-30 20:36 -34.72877 138.12954 41100 ft 537 kts 124°
2026-04-30 20:37 -34.79155 138.24266 41102 ft 537 kts 124°
2026-04-30 20:37 -34.83308 138.31770 41103 ft 537 kts 124°
2026-04-30 20:38 -34.87482 138.39328 41103 ft 537 kts 124°
2026-04-30 20:38 -34.91658 138.46904 41104 ft 536 kts 124°
2026-04-30 20:39 -34.95319 138.54744 41106 ft 536 kts 112°
2026-04-30 20:39 -34.96724 138.58952 41102 ft 535 kts 110°
2026-04-30 20:40 -35.00633 138.71740 41105 ft 535 kts 109°
2026-04-30 20:40 -35.03173 138.80224 41114 ft 535 kts 109°
2026-04-30 20:41 -35.07022 138.93001 41133 ft 534 kts 109°
2026-04-30 20:41 -35.09575 139.01472 41134 ft 533 kts 109°
2026-04-30 20:42 -35.12139 139.10007 41134 ft 533 kts 109°
2026-04-30 20:43 -35.15943 139.22718 41143 ft 533 kts 109°
2026-04-30 20:43 -35.18487 139.31251 41143 ft 533 kts 109°
2026-04-30 20:44 -35.22272 139.43997 41153 ft 533 kts 109°
2026-04-30 20:45 -35.27745 139.60836 41154 ft 533 kts 115°
2026-04-30 20:45 -35.30954 139.69039 41158 ft 533 kts 115°
2026-04-30 20:46 -35.37155 139.85453 41163 ft 532 kts 114°
2026-04-30 20:47 -35.41729 139.97882 41174 ft 532 kts 114°
2026-04-30 20:48 -35.46269 140.10253 41172 ft 531 kts 114°
2026-04-30 20:48 -35.49301 140.18537 41176 ft 531 kts 114°
2026-04-30 20:49 -35.52329 140.26829 41178 ft 531 kts 114°
2026-04-30 20:50 -35.56840 140.39224 41183 ft 531 kts 114°
2026-04-30 20:50 -35.59831 140.47470 41189 ft 530 kts 114°
2026-04-30 20:51 -35.62831 140.55761 41192 ft 530 kts 114°
2026-04-30 20:51 -35.67310 140.68183 41198 ft 530 kts 114°
2026-04-30 20:52 -35.70293 140.76484 41199 ft 530 kts 114°
2026-04-30 20:53 -35.74735 140.88883 41205 ft 529 kts 114°
2026-04-30 20:53 -35.77701 140.97192 41208 ft 529 kts 114°
2026-04-30 20:54 -35.82118 141.09606 41213 ft 529 kts 113°
2026-04-30 20:55 -35.86540 141.22084 41217 ft 529 kts 113°
2026-04-30 20:55 -35.89475 141.30392 41219 ft 528 kts 113°
2026-04-30 20:56 -35.93865 141.42865 41224 ft 528 kts 113°
2026-04-30 20:57 -35.98235 141.55329 41223 ft 528 kts 113°
2026-04-30 20:57 -36.01144 141.63654 41230 ft 528 kts 113°
2026-04-30 20:58 -36.05507 141.76182 41231 ft 528 kts 113°
2026-04-30 20:58 -36.08393 141.84500 41231 ft 528 kts 113°
2026-04-30 20:59 -36.12726 141.97027 41239 ft 528 kts 113°
2026-04-30 21:00 -36.18464 142.13708 41239 ft 527 kts 113°
2026-04-30 21:01 -36.22288 142.24865 41242 ft 527 kts 113°
2026-04-30 21:02 -36.26561 142.37380 41250 ft 527 kts 112°
2026-04-30 21:02 -36.29417 142.45780 41249 ft 527 kts 112°
2026-04-30 21:03 -36.32264 142.54174 41253 ft 527 kts 112°
2026-04-30 21:03 -36.35085 142.62516 41261 ft 527 kts 112°
2026-04-30 21:04 -36.37921 142.70923 41261 ft 527 kts 112°
2026-04-30 21:04 -36.42143 142.83488 41264 ft 526 kts 112°
2026-04-30 21:05 -36.44953 142.91891 41267 ft 526 kts 112°
2026-04-30 21:05 -36.47742 143.00253 41274 ft 526 kts 112°
2026-04-30 21:06 -36.49145 143.04467 41163 ft 526 kts 112°
2026-04-30 21:06 -36.50545 143.08676 40885 ft 524 kts 112°
2026-04-30 21:06 -36.51921 143.12821 40280 ft 524 kts 112°
2026-04-30 21:06 -36.53311 143.17015 39599 ft 525 kts 112°
2026-04-30 21:07 -36.54700 143.21212 38957 ft 526 kts 112°
2026-04-30 21:07 -36.56099 143.25444 38183 ft 526 kts 112°
2026-04-30 21:07 -36.57488 143.29651 37420 ft 526 kts 112°
2026-04-30 21:07 -36.58880 143.33872 36669 ft 525 kts 111°
2026-04-30 21:08 -36.60264 143.38082 35926 ft 525 kts 112°
2026-04-30 21:08 -36.61627 143.42234 35191 ft 524 kts 112°
2026-04-30 21:08 -36.63004 143.46430 34456 ft 523 kts 111°
2026-04-30 21:08 -36.64383 143.50636 33608 ft 522 kts 112°
2026-04-30 21:09 -36.65752 143.54823 32722 ft 522 kts 112°
2026-04-30 21:09 -36.67120 143.59015 31825 ft 523 kts 112°
2026-04-30 21:09 -36.68493 143.63227 30943 ft 523 kts 112°
2026-04-30 21:09 -36.69863 143.67434 29951 ft 524 kts 112°
2026-04-30 21:10 -36.71216 143.71591 29009 ft 523 kts 112°
2026-04-30 21:10 -36.72577 143.75774 28223 ft 518 kts 112°
2026-04-30 21:10 -36.73925 143.79919 27570 ft 512 kts 111°
2026-04-30 21:10 -36.75259 143.84033 26916 ft 507 kts 111°
2026-04-30 21:11 -36.76568 143.88080 26279 ft 502 kts 111°
2026-04-30 21:11 -36.77868 143.92103 25628 ft 497 kts 111°
2026-04-30 21:11 -36.79140 143.96045 25000 ft 492 kts 111°
2026-04-30 21:11 -36.80417 144.00009 24376 ft 488 kts 111°
2026-04-30 21:12 -36.81678 144.03928 23716 ft 484 kts 110°
2026-04-30 21:12 -36.82914 144.07772 23037 ft 478 kts 110°
2026-04-30 21:12 -36.84144 144.11601 22408 ft 472 kts 110°
2026-04-30 21:12 -36.85356 144.15388 21798 ft 465 kts 110°
2026-04-30 21:13 -36.86553 144.19130 21186 ft 460 kts 110°
2026-04-30 21:13 -36.87734 144.22832 20568 ft 454 kts 110°
2026-04-30 21:13 -36.88892 144.26467 19947 ft 449 kts 110°
2026-04-30 21:13 -36.90031 144.30039 19354 ft 445 kts 110°
2026-04-30 21:14 -36.91173 144.33626 18734 ft 441 kts 110°
2026-04-30 21:14 -36.92398 144.37136 18076 ft 438 kts 117°
2026-04-30 21:14 -36.94082 144.40278 17474 ft 434 kts 127°
2026-04-30 21:14 -36.96008 144.43182 16844 ft 431 kts 129°
2026-04-30 21:15 -36.97961 144.46016 16235 ft 427 kts 130°
2026-04-30 21:15 -36.99873 144.48771 15621 ft 424 kts 130°
2026-04-30 21:15 -37.01812 144.51556 15000 ft 422 kts 130°
2026-04-30 21:15 -37.03736 144.54318 14375 ft 419 kts 130°
2026-04-30 21:16 -37.05650 144.57066 13713 ft 416 kts 130°
2026-04-30 21:16 -37.07543 144.59782 13075 ft 411 kts 130°
2026-04-30 21:16 -37.09392 144.62435 12458 ft 406 kts 130°
2026-04-30 21:16 -37.11239 144.65087 11852 ft 402 kts 130°
2026-04-30 21:17 -37.13072 144.67724 11242 ft 398 kts 129°
2026-04-30 21:17 -37.14863 144.70301 11033 ft 383 kts 129°
2026-04-30 21:17 -37.16777 144.72548 10796 ft 371 kts 145°
2026-04-30 21:17 -37.19063 144.73807 10602 ft 358 kts 165°
2026-04-30 21:18 -37.21455 144.74480 10423 ft 345 kts 169°
2026-04-30 21:18 -37.23775 144.75061 10260 ft 333 kts 169°
2026-04-30 21:18 -37.26010 144.75632 10099 ft 321 kts 168°
2026-04-30 21:18 -37.28171 144.76195 9848 ft 314 kts 168°
2026-04-30 21:19 -37.30274 144.76750 9481 ft 310 kts 168°
2026-04-30 21:19 -37.32389 144.77310 9152 ft 309 kts 168°
2026-04-30 21:19 -37.34505 144.77858 8880 ft 309 kts 171°
2026-04-30 21:19 -37.36609 144.78240 8668 ft 309 kts 174°
2026-04-30 21:20 -37.38737 144.78574 8449 ft 306 kts 174°
2026-04-30 21:20 -37.40853 144.78915 8233 ft 306 kts 173°
2026-04-30 21:20 -37.42968 144.79271 8005 ft 306 kts 173°
2026-04-30 21:20 -37.45056 144.79607 7784 ft 305 kts 176°
2026-04-30 21:21 -37.47162 144.79393 7575 ft 301 kts 199°
2026-04-30 21:21 -37.49137 144.78542 7355 ft 299 kts 205°
2026-04-30 21:21 -37.53000 144.76660 6928 ft 298 kts 205°
2026-04-30 21:22 -37.54941 144.75726 6713 ft 298 kts 205°
2026-04-30 21:22 -37.60896 144.73633 6060 ft 302 kts 186°
2026-04-30 21:23 -37.62987 144.73492 5857 ft 301 kts 185°
2026-04-30 21:23 -37.65096 144.73358 5632 ft 300 kts 185°
2026-04-30 21:23 -37.69238 144.73085 5214 ft 299 kts 185°
2026-04-30 21:24 -37.71300 144.72946 5022 ft 293 kts 185°
2026-04-30 21:24 -37.73290 144.72905 4855 ft 285 kts 182°
2026-04-30 21:24 -37.75274 144.72903 4646 ft 278 kts 182°
2026-04-30 21:24 -37.77170 144.72900 4411 ft 273 kts 182°
2026-04-30 21:25 -37.80958 144.73053 3990 ft 273 kts 166°
2026-04-30 21:25 -37.82543 144.74221 3847 ft 259 kts 128°
2026-04-30 21:25 -37.83490 144.76057 3735 ft 242 kts 112°
2026-04-30 21:26 -37.84329 144.79807 3459 ft 206 kts 76°
2026-04-30 21:26 -37.84135 144.81565 3218 ft 198 kts 71°
2026-04-30 21:27 -37.83616 144.84909 2940 ft 180 kts 61°
2026-04-30 21:27 -37.82911 144.86015 2788 ft 150 kts 19°
2026-04-30 21:27 -37.81974 144.86292 2678 ft 134 kts
2026-04-30 21:28 -37.80259 144.86183 2525 ft 116 kts 354°
2026-04-30 21:28 -37.79469 144.86070 2514 ft 113 kts 354°
2026-04-30 21:28 -37.77883 144.85829 2217 ft 113 kts 355°
2026-04-30 21:29 -37.77099 144.85692 2076 ft 113 kts 352°
2026-04-30 21:29 -37.74757 144.85253 1633 ft 116 kts 354°
2026-04-30 21:30 -37.73124 144.84948 1312 ft 119 kts 353°
2026-04-30 21:31 -37.70624 144.84479 808 ft 123 kts 353°
2026-04-30 21:31 -37.68933 144.84154 465 ft 123 kts 356°
2026-04-30 21:32 -37.67420 144.83883 375 ft 78 kts 352°
2026-04-30 21:32 -37.67076 144.83832 390 ft 41 kts
2026-04-30 21:32 -37.66874 144.83897 393 ft 16 kts 21°
2026-04-30 21:32 -37.66787 144.83940 395 ft 8 kts 23°
2026-04-30 21:33 -37.66741 144.83976 398 ft 8 kts 46°
2026-04-30 21:33 -37.66717 144.84077 398 ft 6 kts 82°
2026-04-30 21:33 -37.66711 144.84122 400 ft 3 kts 81°
2026-04-30 21:34 -37.66710 144.84130 400 ft 0 kts 81°
2026-04-30 21:37 -37.66710 144.84135 401 ft 4 kts 81°
2026-04-30 21:37 -37.66702 144.84197 402 ft 10 kts 82°
2026-04-30 21:37 -37.66691 144.84289 399 ft 12 kts 81°
2026-04-30 21:37 -37.66678 144.84397 402 ft 13 kts 82°
2026-04-30 21:38 -37.66664 144.84518 405 ft 14 kts 82°
2026-04-30 21:38 -37.66652 144.84618 407 ft 9 kts 81°
2026-04-30 21:38 -37.66642 144.84706 408 ft 10 kts 82°
2026-04-30 21:38 -37.66647 144.84778 408 ft 9 kts 115°
2026-04-30 21:39 -37.66703 144.84813 407 ft 9 kts 165°
2026-04-30 21:39 -37.66735 144.84820 406 ft 4 kts 188°
2026-04-30 21:39 -37.66755 144.84789 405 ft 6 kts 243°
2026-04-30 21:39 -37.66766 144.84752 402 ft 1 kts 252°
2026-04-30 21:40 -37.66770 144.84737 404 ft 1 kts 252°